Location: Foligno
(42.9600°N, 12.7050°E)
Time: 05:54:59
(UTC+01:00)

ISS - Pass Details

Date: 22 January 2021
Orbit: 418 x 421 km, 51.6° (Epoch: 23 January)

Event Time Altitude Azimuth Distance (km) Brightness Sun altitude
Rises 18:40:49 0° 256° (WSW) 2,362 1.9 -16.7°
Reaches altitude 10° 18:43:00 10° 264° (W) 1,501 0.4 -17.1°
Maximum altitude 18:46:11 39° 335° (NNW) 646 -2.8 -17.7°
Enters shadow 18:47:08 31° 15° (NNE) 762 -2.7 -17.8°
